Tracking 29892 objects as of 21-Nov-2024
HD Live streaming from Space Station
objects crossing your sky now

STARLINK-32089

Track STARLINK-32089 now!
10-day predictions
STARLINK-32089 is classified as:


NORAD ID: 59687
Int'l Code: 2024-086F
Perigee: 449.5 km
Apogee: 452.9 km
Inclination: 43.0 °
Period: 93.5 minutes
Semi major axis: 6822 km
RCS: Unknown
Launch date: May 8, 2024
Source: United States (US)
Launch site: AIR FORCE EASTERN TEST RANGE (AFETR)
Your satellite tracking list
Your tracking list is empty




NASA's NSSDC Master Catalog

Two Line Element Set (TLE):
1 59687U 24086F   24325.78584232  .00001709  00000-0  48170-4 0  9991
2 59687  43.0065 231.0679 0002479 271.0816  88.9756 15.40701985 31467
Source of the keplerian elements: AFSPC